Location: Elvington
(51.2000°N, 1.2500°E)
Time: 14:51:40
(UTC+00:00)

Daily predictions for brighter satellites

Satellite Brightness Start Highest point End
(mag) Time Altitude Azimuth Time Altitude Azimuth Time Altitude Azimuth
Cosmos 1486 Rocket 4.2 16:54:11 10° SSW 16:59:26 81° WNW 17:04:41 10° NNE
Cosmos 1400 Rocket 4.0 16:57:35 10° NNW 17:01:36 50° W 17:05:31 10° S
Okean-O 4.1 16:59:00 10° E 17:01:50 17° ENE 17:04:40 10° NNE
Okean O Rocket 1.7 16:58:13 10° SSE 17:02:33 56° ENE 17:06:55 10° N
CORIOLIS 4.2 16:57:50 10° SSE 17:03:11 67° ENE 17:08:32 10° N
RESURS DK-1 2.4 17:00:46 10° SSW 17:04:55 87° ESE 17:09:05 10° NNE
Cosmos 2263 Rocket 2.3 16:59:48 10° SSW 17:05:25 65° ESE 17:11:02 10° NE
Cosmos 1455 3.7 17:05:18 10° NNE 17:07:47 16° ENE 17:10:17 10° ESE
Meteor 2-5 Rocket 3.8 17:03:41 10° S 17:09:07 58° E 17:14:33 10° NNE
Aureole 2 Rocket 4.3 17:09:28 10° ESE 17:09:51 10° E 17:10:14 10° E
USA 229 DEB 4.5 17:04:58 10° NW 17:11:27 37° NNE 17:18:19 10° E
USA 229 4.5 17:05:05 10° NW 17:11:33 37° NNE 17:18:23 10° E
Cosmos 1606 Rocket 3.6 17:07:54 10° N 17:12:15 58° ENE 17:16:36 10° SSE
NOAA 11 4.2 17:06:55 10° SSE 17:12:24 72° ENE 17:17:54 10° NNW
Cosmos 1300 2.6 17:09:09 10° N 17:12:59 72° ENE 17:16:48 10° SSE
H-2A R/B 2.4 17:09:22 10° NNE 17:13:43 50° E 17:17:59 10° S
NOSS 3-4 (A) 4.0 17:10:54 10° WSW 17:16:44 53° NW 17:23:08 10° NE
NOSS 3-4 (C) 4.0 17:11:03 10° WSW 17:16:54 54° NW 17:23:18 10° NE
AQUARIUS 4.2 17:12:26 10° SSE 17:16:56 86° ENE 17:21:28 10° NNW
YAOGAN 1 3.8 17:14:34 10° ESE 17:17:47 21° ENE 17:21:00 10° NNE
Cosmos 1892 Rocket 4.3 17:14:01 10° SSE 17:17:49 31° E 17:21:37 10° NNE
GENESIS II 4.3 17:15:32 10° SSW 17:19:31 71° SE 17:23:31 10° NE
SMAP 3.2 17:14:56 10° SSE 17:19:35 80° WSW 17:24:17 10° NNW
Cosmos 2228 2.9 17:15:34 10° N 17:19:51 76° ENE 17:24:08 10° SSE
ARGOS 4.3 17:16:52 10° ESE 17:20:46 21° NE 17:24:40 10° N
ERS-2 3.9 17:20:31 11° ENE 17:22:11 14° E 17:24:10 10° SE
Cosmos 1943 4.1 17:21:00 10° NW 17:26:33 55° WSW 17:32:02 10° S
NOSS 3-1 (A) 4.5 17:20:45 10° NW 17:27:06 39° NNE 17:34:20 11° E
Cosmos 1503 Rocket 4.2 17:22:15 10° SSW 17:27:38 81° WNW 17:33:03 10° NNE
CZ-4B R/B 2.4 17:25:21 10° NE 17:28:18 27° E 17:31:11 10° SSE
BREEZE-M DEB (TANK) 2.0 17:26:08 10° WSW 17:28:43 57° S 17:30:28 14° E
SKYMED 2 4.3 17:27:02 10° NNE 17:30:56 31° E 17:34:49 10° SSE
IRS-1C Rocket 4.4 17:26:19 10° SE 17:31:17 45° ENE 17:36:16 10° N
SJ 16-02 2.7 17:28:57 10° SE 17:32:10 20° E 17:34:30 14° ENE
ATLAS 2AS CENTAUR R/B 3.4 17:26:29 10° WSW 17:34:22 61° NW 17:42:01 10° NE
Cosmos 1833 Rocket 4.0 17:31:52 10° NNW 17:36:04 21° NE 17:38:57 15° ENE
Cosmos 158 Rocket 4.4 17:31:51 10° NNW 17:36:56 43° ENE 17:42:04 10° SE
SeaSat 1 3.8 17:32:29 10° NNE 17:36:56 34° NW 17:41:20 10° WSW
Meteor 1-24 Rocket 3.5 17:33:47 10° S 17:39:07 79° E 17:44:27 10° NNE
Cosmos 923 Rocket 4.4 17:34:10 10° NNW 17:39:16 42° NE 17:44:18 10° SE
Cosmos 2082 Rocket 3.8 17:36:18 10° N 17:39:54 17° NNE 17:42:05 14° NE
Landsat 5 3.9 17:38:31 10° N 17:42:26 58° WNW 17:46:13 10° SSW
Nadezhda 4 Rocket 4.4 17:37:20 10° SSE 17:43:05 40° E 17:48:48 10° NNE
Cosmos 1939 Rocket 2.8 17:40:06 10° SSE 17:44:13 82° ENE 17:48:19 10° NNW
Cosmos 2058 Rocket 3.1 17:41:31 10° N 17:46:01 65° ENE 17:50:29 10° SSE
Cosmos 1680 Rocket 4.0 17:41:20 10° NNW 17:46:14 37° NE 17:51:05 10° ESE
H-2A R/B 2.4 17:42:59 10° SE 17:47:36 38° ENE 17:52:20 10° N
CZ-4C R/B 3.1 17:42:58 10° WSW 17:48:06 45° NNW 17:53:55 12° NE
Cosmos 1315 Rocket 4.2 17:46:22 10° NNW 17:50:09 42° W 17:53:57 10° SSW
CZ-2C R/B 3.2 17:45:53 10° SSE 17:51:10 65° ENE 17:56:47 10° N
COSMOS 2455 3.0 17:47:34 10° SSW 17:53:26 56° ESE 17:58:25 15° NE
Cosmos 2227 Rocket 4.2 17:51:09 10° W 17:55:15 20° NNW 17:59:21 10° NNE
MOS 1 Rocket 3.4 17:51:54 10° NNE 17:56:01 42° E 18:00:05 10° S
Cosmos 1626 3.9 17:52:40 10° SW 17:56:01 33° WNW 17:59:26 10° N
Feng Yun 1-1 Rocket 4.2 17:51:21 10° SSE 17:56:48 88° ENE 18:02:24 10° NNW
CZ-4 R/B 1.5 17:54:40 10° SE 17:58:37 49° ENE 18:02:31 10° N
Cosmos 1726 Rocket 4.0 17:54:29 10° NNW 17:58:49 63° W 18:03:09 10° S
Cosmos 1844 Rocket 3.1 17:54:12 10° S 17:59:27 41° ESE 18:03:17 18° NE
USA 234 3.5 17:55:48 18° ENE 18:00:37 56° N 18:07:00 10° WNW
Cosmos 1818 4.1 17:56:22 10° S 18:01:23 39° ESE 18:04:19 22° ENE
Iridium 4 Rocket 4.3 17:56:43 10° N 18:01:52 33° ENE 18:06:41 10° SE
Okean 1-7 Rocket 3.7 17:58:56 10° S 18:03:24 58° E 18:07:54 10° NNE
CREW DRAGON DEMO-1 DEB 3.0 18:01:08 10° W 18:04:00 60° SSW 18:05:17 28° SE
SAR-Lupe-4 4.3 18:06:12 30° E 18:06:32 31° E 18:09:45 10° SSE
Meteor 2-10 Rocket 3.7 18:02:16 10° NNW 18:07:51 80° W 18:13:09 10° S
X-37B 2.7 18:07:08 10° SSW 18:09:08 16° SSE 18:09:46 15° SE
Cosmos 1626 Rocket 4.0 18:05:42 10° SSE 18:09:43 37° E 18:12:05 21° NE
Meteor 1-21 Rocket 4.4 18:08:13 10° SSE 18:13:29 48° E 18:18:48 10° NNE
SAR-Lupe-1 4.4 18:17:08 39° E 18:17:16 40° E 18:20:39 10° S
Cosmos 44 4.5 18:13:48 10° SSE 18:17:27 23° ESE 18:17:27 23° ESE
COSMO-SKYMED 1 2.5 18:14:51 10° NNE 18:19:14 88° E 18:23:35 10° SSW
Cosmos 2026 Rocket 4.4 18:14:26 10° SSE 18:19:57 37° E 18:25:34 10° NNE
Cosmos 2297 Rocket 4.4 18:17:00 10° WNW 18:20:03 15° NNW 18:23:07 10° N
CZ-2D R/B 3.8 18:17:35 10° S 18:21:24 59° W 18:25:13 10° NNW
CSL-04 Rocket 3.8 18:18:11 10° SE 18:23:26 53° ENE 18:28:46 10° N
Cosmos 2112 Rocket 4.0 18:18:59 10° NNW 18:24:12 59° ENE 18:28:48 13° SE
Cosmos 1777 Rocket 4.3 18:19:44 10° SSW 18:24:59 70° WNW 18:30:04 11° NNE
ATLAS 5 CENTAUR R/B 2.5 18:22:31 10° WSW 18:26:31 41° NNW 18:29:12 21° NNE
Lacrosse 5 2.6 18:24:35 10° WNW 18:29:30 53° SW 18:34:00 12° SSE
Aureole 3 3.0 18:27:25 10° NNW 18:31:03 74° W 18:34:07 10° S
ISS -2.8 18:29:31 10° SW 18:32:24 35° SSE 18:32:24 35° SSE
SL-08 RB Rocket 3.8 18:36:35 46° E 18:37:00 48° ENE 18:41:21 10° N
Okean-O 2.7 18:33:20 10° S 18:37:46 77° WSW 18:42:15 10° NNW
Meteor 2-8 Rocket 4.3 18:32:12 10° N 18:38:16 67° ENE 18:44:21 10° SSE
Okean O Rocket 4.4 18:35:59 10° SW 18:39:15 20° W 18:42:32 10° NW
Meteor 2-1 Rocket 4.4 18:34:17 10° NNW 18:39:51 70° W 18:45:19 10° S
Cosmos 2344 4.2 18:32:53 10° NW 18:41:42 73° NE 18:51:01 19° ESE
Aureole 2 Rocket 2.5 18:39:19 10° SW 18:42:19 58° WNW 18:42:23 58° NW
Cosmos 1455 3.0 18:40:00 10° NNW 18:43:43 52° W 18:47:26 10° S
Helios 1A Rocket 2.9 18:40:23 10° SSE 18:44:32 83° WSW 18:48:43 10° NNW
Cosmos 2195 Rocket 4.4 18:39:28 10° S 18:45:42 64° E 18:51:59 10° NNE
NOSS 3-1 (C) 3.9 18:38:33 10° NW 18:45:49 83° NE 18:51:58 21° SE
Cosmos 1689 Rocket 4.4 18:49:45 17° SSW 18:49:45 17° SSW 18:50:33 10° SSW
H-2A R/B 4.3 18:45:49 10° N 18:49:24 24° WNW 18:52:56 10° WSW
Cosmos 2263 Rocket 3.8 18:44:47 10° WSW 18:49:47 31° NW 18:54:29 11° NNE
Cosmos 1602 Rocket 3.4 18:45:51 10° S 18:50:09 68° E 18:50:10 68° E
USA 281 4.1 18:52:47 29° NE 18:52:47 29° NE 18:58:14 10° NNW
YAOGAN 1 3.2 18:49:17 10° S 18:53:32 57° W 18:57:49 10° NNW
ERS-2 2.6 18:55:04 40° NNW 18:56:04 57° WNW 18:59:38 10° SSW
Cosmos 1627 Rocket 4.4 18:51:18 10° S 18:57:26 69° E 19:03:41 10° NNE
Cosmos 990 Rocket 3.9 18:52:54 10° S 18:58:01 61° ESE 18:58:09 60° ESE
Cosmos 1703 3.6 18:55:16 10° S 18:58:23 56° SSW 18:58:23 56° SSW
Cosmos 1428 Rocket 4.4 18:53:29 10° S 18:59:42 67° E 19:05:59 10° NNE
CZ-4B R/B 3.7 18:57:49 11° NNW 19:00:26 24° WNW 19:03:11 10° WSW
ARGOS 3.2 18:55:05 10° SSE 19:00:27 81° WSW 19:05:52 10° NNW
USA 229 DEB 3.8 18:56:09 10° NW 19:03:24 80° NE 19:06:37 39° SE
USA 229 3.8 18:56:15 10° NW 19:03:30 80° NE 19:06:40 39° SE
COSMOS 2406 3.2 18:57:47 10° NNW 19:03:34 66° ENE 19:04:20 59° E
Cosmos 1812 Rocket 3.8 19:01:20 10° NNW 19:05:45 70° W 19:10:04 10° S
USA 267 4.1 19:07:16 31° SE 19:07:16 31° SE 19:12:13 10° SSW
CZ-2C R/B 2.9 19:08:10 53° SE 19:08:10 53° SE 19:12:51 10° S
Meteor 2-15 Rocket 4.3 19:02:08 10° N 19:08:15 64° ENE 19:09:30 53° SE
DMSP B5D1-3 4.4 19:06:53 32° NNE 19:09:18 88° WNW 19:14:24 10° SSW
SJ 16-02 2.0 19:06:04 10° SW 19:10:23 54° WNW 19:11:33 41° NNW
Ariane Rocket 4.3 19:12:51 28° N 19:12:51 28° N 19:15:22 10° N
Cosmos 1092 Rocket 4.0 19:05:36 10° SSW 19:11:48 81° W 19:18:00 10° N
CZ-3B R/B 3.1 19:15:36 10° WNW 19:18:30 46° SSW 19:20:07 35° SSE
NOSS 3-1 (A) 3.9 19:11:41 10° NW 19:18:59 84° NE 19:21:50 46° SE
Cosmos 1833 Rocket 2.6 19:15:20 10° NNW 19:20:41 72° NNE 19:20:41 72° NNE
Cosmos 1844 4.0 19:18:55 10° SW 19:24:34 67° WNW 19:26:16 45° N
Cosmos 2082 Rocket 2.9 19:19:49 10° NNW 19:23:58 41° N 19:23:58 41° N
ATLAS 2AS CENTAUR R/B 4.0 19:19:46 10° WNW 19:26:49 34° NNW 19:29:35 27° NNE
H-2A R/B 3.5 19:22:29 10° SSW 19:27:04 36° W 19:31:47 10° NNW
Cosmos 1898 Rocket 3.8 19:24:43 10° SSW 19:28:59 60° SSW 19:28:59 60° SSW
CZ-4 R/B 4.1 19:30:54 10° SW 19:33:53 19° W 19:36:52 10° NW
CZ-4C R/B 3.8 19:33:06 10° WNW 19:38:13 28° N 19:39:07 27° N
Cosmos 2098 Rocket 4.4 19:32:09 10° SSW 19:39:23 81° W 19:46:50 10° N
COSMOS 2455 3.9 19:33:58 10° WSW 19:39:38 40° NW 19:41:34 32° N
Cosmos 1844 Rocket 3.7 19:37:57 10° WSW 19:43:21 43° NW 19:44:59 35° N
USA 234 3.1 19:43:09 82° ENE 19:43:24 84° NNE 19:49:59 10° WNW
Cosmos 1818 4.2 19:39:35 10° WSW 19:44:53 51° NW 19:45:00 51° NW
Cosmos 1553 Rocket 4.5 19:54:30 10° NNW 20:00:48 59° W 20:03:03 39° SSW
ATLAS 5 CENTAUR R/B 4.1 20:08:52 10° WNW 20:10:44 18° NW 20:10:44 18° NW
USA 281 4.3 20:39:39 36° NNW 20:39:39 36° NNW 20:43:17 10° NNW
ATLAS 2AS CENTAUR R/B 4.5 21:12:48 10° NW 21:17:02 28° NNW 21:17:02 28° NNW
